When you browse on this site, cookies collect data to enhance your experience and personalize the content and advertising you see.
Visit our Privacy Policy to learn more. By continuing to use the site, you agree to this use of cookies and data.
  • în România
  • Lista ţărilor
  • Pe 7 zile
  • Temperatura apei
  • Meteo pe hartă
  • Widget-uri
  • user-avatar
    Intrare

    Meteo pe oră la Newcastle

    Astăzi, 20 Noiembrie, Miercuri

    Timp Temperatura Precipitaţii Vânt Presiune Umiditate
    00:00 +4°C° 0 mm 4 m/s 745 mmHg 94%
    01:00 +3°C° 0 mm 4 m/s 745 mmHg 94%
    02:00 +3°C° 0 mm 4 m/s 745 mmHg 93%
    03:00 +2°C° 0 mm 5 m/s 744 mmHg 93%
    04:00 +2°C° 0 mm 5 m/s 744 mmHg 93%
    05:00 +2°C° 0 mm 5 m/s 744 mmHg 93%
    06:00 +3°C° 0 mm 5 m/s 744 mmHg 93%
    07:00 +3°C° 0 mm 5 m/s 744 mmHg 93%
    08:00 +3°C° 0 mm 6 m/s 744 mmHg 93%
    09:00 +3°C° 0 mm 6 m/s 745 mmHg 93%
    10:00 +4°C° 0 mm 6 m/s 744 mmHg 89%
    11:00 +4°C° 0 mm 6 m/s 744 mmHg 86%
    12:00 +4°C° 0 mm 6 m/s 744 mmHg 82%
    13:00 +4°C° 0 mm 6 m/s 744 mmHg 81%
    14:00 +4°C° 0 mm 6 m/s 744 mmHg 80%
    15:00 +3°C° 0 mm 6 m/s 743 mmHg 79%
    16:00 +3°C° 0 mm 6 m/s 743 mmHg 80%
    17:00 +2°C° 0 mm 6 m/s 743 mmHg 81%
    18:00 +2°C° 0 mm 6 m/s 743 mmHg 82%
    19:00 +1°C° 0 mm 6 m/s 743 mmHg 82%
    20:00 +1°C° 0 mm 6 m/s 743 mmHg 83%
    21:00 -1°C° 0 mm 6 m/s 742 mmHg 83%
    22:00 -1°C° 0 mm 6 m/s 742 mmHg 85%
    23:00 -1°C° 0 mm 6 m/s 742 mmHg 86%

    Mâine, 21 Noiembrie, Joi

    Timp Temperatura Precipitaţii Vânt Presiune Umiditate
    00:00 -1°C° 0 mm 6 m/s 742 mmHg 87%
    01:00 -1°C° 0 mm 6 m/s 741 mmHg 88%
    02:00 -1°C° 0 mm 6 m/s 741 mmHg 89%
    03:00 -1°C° 0 mm 6 m/s 740 mmHg 90%
    04:00 -1°C° 0 mm 6 m/s 740 mmHg 90%
    05:00 -1°C° 0 mm 6 m/s 740 mmHg 90%
    06:00 -1°C° 0 mm 6 m/s 740 mmHg 89%
    07:00 +1°C° 0 mm 6 m/s 740 mmHg 88%
    08:00 0°C° 0 mm 7 m/s 740 mmHg 87%
    09:00 0°C° 0 mm 7 m/s 739 mmHg 86%
    10:00 +2°C° 0 mm 7 m/s 739 mmHg 86%
    11:00 +2°C° 0 mm 7 m/s 738 mmHg 85%
    12:00 +3°C° 0 mm 7 m/s 738 mmHg 85%
    13:00 +3°C° 0 mm 7 m/s 738 mmHg 85%
    14:00 +3°C° 0 mm 7 m/s 737 mmHg 86%
    15:00 +3°C° 0 mm 6 m/s 737 mmHg 87%
    16:00 +3°C° 0.1 mm 7 m/s 737 mmHg 88%
    17:00 +3°C° 0.1 mm 7 m/s 736 mmHg 90%
    18:00 +3°C° 0.1 mm 7 m/s 736 mmHg 91%
    19:00 +4°C° 0.6 mm 7 m/s 736 mmHg 92%
    20:00 +4°C° 0.6 mm 7 m/s 736 mmHg 92%
    21:00 +4°C° 0.6 mm 6 m/s 736 mmHg 93%
    22:00 +4°C° 0.4 mm 6 m/s 735 mmHg 93%
    23:00 +4°C° 0.4 mm 6 m/s 735 mmHg 93%

    Poimâine, 22 Noiembrie, Vineri

    Timp Temperatura Precipitaţii Vânt Presiune Umiditate
    00:00 +4°C° 0.4 mm 6 m/s 735 mmHg 93%
    01:00 +4°C° 0.2 mm 6 m/s 734 mmHg 93%
    02:00 +5°C° 0.2 mm 5 m/s 734 mmHg 94%
    03:00 +5°C° 0.2 mm 5 m/s 734 mmHg 94%
    04:00 +5°C° 0 mm 5 m/s 734 mmHg 93%
    05:00 +3°C° 0 mm 5 m/s 734 mmHg 92%
    06:00 +3°C° 0 mm 5 m/s 734 mmHg 91%
    07:00 +3°C° 0 mm 5 m/s 734 mmHg 92%
    08:00 +3°C° 0 mm 5 m/s 734 mmHg 92%
    09:00 +3°C° 0 mm 5 m/s 734 mmHg 92%
    10:00 +5°C° 0 mm 5 m/s 734 mmHg 89%
    11:00 +5°C° 0 mm 6 m/s 735 mmHg 86%
    12:00 +7°C° 0 mm 6 m/s 735 mmHg 84%
    13:00 +6°C° 0.3 mm 5 m/s 735 mmHg 86%
    14:00 +6°C° 0.3 mm 5 m/s 735 mmHg 88%
    15:00 +5°C° 0.3 mm 4 m/s 735 mmHg 90%
    16:00 +6°C° 0.5 mm 5 m/s 735 mmHg 90%
    17:00 +6°C° 0.5 mm 5 m/s 735 mmHg 90%
    18:00 +5°C° 0.5 mm 6 m/s 735 mmHg 90%
    19:00 +6°C° 0 mm 5 m/s 735 mmHg 90%
    20:00 +5°C° 0 mm 5 m/s 736 mmHg 91%
    21:00 +3°C° 0 mm 5 m/s 736 mmHg 91%
    22:00 +3°C° 0 mm 5 m/s 736 mmHg 92%
    23:00 +4°C° 0 mm 4 m/s 736 mmHg 93%

    23 Noiembrie, Sâmbătă

    Timp Temperatura Precipitaţii Vânt Presiune Umiditate
    00:00 +4°C° 0 mm 4 m/s 736 mmHg 94%
    01:00 +4°C° 0 mm 4 m/s 736 mmHg 94%
    02:00 +5°C° 0 mm 4 m/s 736 mmHg 94%
    03:00 +5°C° 0 mm 5 m/s 736 mmHg 94%
    04:00 +5°C° 0 mm 5 m/s 736 mmHg 94%
    05:00 +5°C° 0 mm 5 m/s 736 mmHg 94%
    06:00 +5°C° 0 mm 5 m/s 737 mmHg 94%
    07:00 +6°C° 0.5 mm 5 m/s 737 mmHg 93%
    08:00 +6°C° 0.5 mm 5 m/s 737 mmHg 93%
    09:00 +6°C° 0.5 mm 5 m/s 737 mmHg 93%
    10:00 +6°C° 0.8 mm 5 m/s 737 mmHg 93%
    11:00 +6°C° 0.8 mm 5 m/s 737 mmHg 94%
    12:00 +6°C° 0.8 mm 5 m/s 737 mmHg 94%
    13:00 +6°C° 1.2 mm 5 m/s 737 mmHg 94%
    14:00 +6°C° 1.2 mm 5 m/s 737 mmHg 94%
    15:00 +6°C° 1.2 mm 5 m/s 737 mmHg 94%
    16:00 +6°C° 1 mm 4 m/s 738 mmHg 95%
    17:00 +6°C° 1 mm 4 m/s 738 mmHg 95%
    18:00 +6°C° 1 mm 4 m/s 738 mmHg 96%
    19:00 +7°C° 0.9 mm 4 m/s 738 mmHg 96%
    20:00 +8°C° 0.9 mm 3 m/s 739 mmHg 96%
    21:00 +8°C° 0.9 mm 3 m/s 739 mmHg 96%
    22:00 +8°C° 0.1 mm 3 m/s 739 mmHg 96%
    23:00 +7°C° 0.1 mm 2 m/s 739 mmHg 96%

    24 Noiembrie, Duminică

    Timp Temperatura Precipitaţii Vânt Presiune Umiditate
    00:00 +8°C° 0.1 mm 1 m/s 740 mmHg 97%
    01:00 +8°C° 0 mm 1 m/s 740 mmHg 97%
    02:00 +8°C° 0 mm 1 m/s 740 mmHg 97%
    03:00 +7°C° 0 mm 2 m/s 740 mmHg 97%
    04:00 +7°C° 0 mm 2 m/s 740 mmHg 97%
    05:00 +7°C° 0 mm 2 m/s 740 mmHg 97%
    06:00 +7°C° 0 mm 2 m/s 741 mmHg 97%
    07:00 +7°C° 0 mm 2 m/s 741 mmHg 96%
    08:00 +7°C° 0 mm 2 m/s 741 mmHg 95%
    09:00 +7°C° 0 mm 2 m/s 742 mmHg 94%
    10:00 +8°C° 0 mm 3 m/s 742 mmHg 92%
    11:00 +8°C° 0 mm 3 m/s 742 mmHg 89%
    12:00 +8°C° 0 mm 4 m/s 742 mmHg 86%
    13:00 +8°C° 0 mm 4 m/s 742 mmHg 87%
    14:00 +9°C° 0 mm 3 m/s 742 mmHg 87%
    15:00 +8°C° 0 mm 3 m/s 741 mmHg 88%
    16:00 +7°C° 0 mm 4 m/s 741 mmHg 88%
    17:00 +6°C° 0 mm 4 m/s 741 mmHg 88%
    18:00 +6°C° 0 mm 5 m/s 740 mmHg 88%
    19:00 +6°C° 0.1 mm 5 m/s 740 mmHg 89%
    20:00 +5°C° 0.1 mm 6 m/s 739 mmHg 90%
    21:00 +5°C° 0.1 mm 7 m/s 739 mmHg 90%
    22:00 +6°C° 0.9 mm 7 m/s 738 mmHg 91%
    23:00 +6°C° 0.9 mm 8 m/s 737 mmHg 91%

    25 Noiembrie, Luni

    Timp Temperatura Precipitaţii Vânt Presiune Umiditate
    00:00 +7°C° 0.9 mm 8 m/s 737 mmHg 92%
    01:00 +7°C° 0.4 mm 8 m/s 736 mmHg 92%
    02:00 +8°C° 0.4 mm 7 m/s 735 mmHg 92%
    03:00 +9°C° 0.4 mm 7 m/s 734 mmHg 93%
    04:00 +9°C° 0.1 mm 7 m/s 734 mmHg 93%
    05:00 +9°C° 0.1 mm 6 m/s 733 mmHg 94%
    06:00 +9°C° 0.1 mm 6 m/s 733 mmHg 94%
    07:00 +8°C° 0.4 mm 6 m/s 733 mmHg 93%
    08:00 +8°C° 0.4 mm 6 m/s 732 mmHg 92%
    09:00 +8°C° 0.4 mm 6 m/s 732 mmHg 91%
    10:00 +9°C° 0.5 mm 6 m/s 732 mmHg 90%
    11:00 +9°C° 0.5 mm 7 m/s 732 mmHg 89%
    12:00 +9°C° 0.5 mm 7 m/s 731 mmHg 88%
    13:00 +9°C° 0.3 mm 6 m/s 731 mmHg 87%
    14:00 +9°C° 0.3 mm 6 m/s 731 mmHg 85%
    15:00 +9°C° 0.3 mm 6 m/s 731 mmHg 84%
    16:00 +8°C° 0.7 mm 6 m/s 731 mmHg 85%
    17:00 +8°C° 0.7 mm 6 m/s 731 mmHg 86%
    18:00 +8°C° 0.7 mm 7 m/s 731 mmHg 87%
    19:00 +8°C° 0.2 mm 7 m/s 731 mmHg 86%
    20:00 +8°C° 0.2 mm 7 m/s 731 mmHg 84%
    21:00 +6°C° 0.2 mm 7 m/s 731 mmHg 83%
    22:00 +8°C° 0.1 mm 7 m/s 731 mmHg 85%
    23:00 +8°C° 0.1 mm 7 m/s 731 mmHg 86%
    Arată mai mult